Starlink 11714

operational
NORAD ID: 64134 Int'l Des: 2025-111 Owner: SPXS Country: US Constellation: starlink
LEOCIRCULAR

Starlink 11714について

説明を読み込み中...

リアルタイム位置

3D地球を読み込み中...

次回通過

高度履歴

Altitude vs Time

uPlot chart will show altitude changes over time

軌道要素

1 64134U 25111M 25353.76420324 .00198877 00000-0 15106-2 0 9999
2 64134 43.0007 95.1900 0004685 280.1392 79.8947 15.70925761 34077
Epoch: Dec 19, 2025 • Age: 12 hours

現在のステータス

高度 357.7 km
速度 7.70 km/s
衛星直下点 -18.89°S, 114.77°W
打ち上げ日 May 24, 2025
運用期間 0.5 years
タイプ internet

技術仕様

分類 Payload
質量 960.00 kg
乾燥質量 910.00 kg
総質量 960.00 kg
長さ 0.30 m
直径 4.10 m
スパン 29.00 m
形状 Box + pan
製造者 SPXS
バスタイプ Starlink V2MD
フェーズステータス In Orbit
所有者/国 SPXS/US

大規模コンステレーション

Loading constellations...